Weather History for Clarion, IA

Change the Weather History Date:

Saturday, February 9, 2013

  Actual Average Record
Temperature  
Mean Temperature 28 °F -  
Max Temperature 33 °F 26 °F 54 °F (1954)
Min Temperature 24 °F 4 °F -30 °F (1972)
Degree Days  
Heating Degree Days 36    
Moisture  
Dew Point 26 °F    
Average Humidity 89    
Maximum Humidity 93    
Minimum Humidity 81    
Precipitation  
Precipitation 0.00 in - - ()
Sea Level Pressure  
Sea Level Pressure 30.04 in    
Wind  
Wind Speed 19 mph (SSE)    
Max Wind Speed 26 mph    
Max Gust Speed 32 mph    
Visibility 7 miles    
Events Rain    
Averages and records for this station are not official NWS values.
T = Trace of Precipitation, MM = Missing Value Source: NWS Daily Summary

Daily Weather History Graph

Daily Weather History Graph

Search for Another Location

Airport:

Trip Planner

Search our weather history database for the weather conditions in past years. The results will help you decide how hot, cold, wet, or windy it might be!

Date:

Astronomy

Feb. 09, 2013 Rise Set
Actual Time 7:19 AM CST 5:39 PM CST
Civil Twilight 6:50 AM CST 6:08 PM CST
Nautical Twilight 6:17 AM CST 6:42 PM CST
Astronomical Twilight 5:44 AM CST 7:14 PM CST
Moon 6:31 AM CST (2/9) 5:23 PM CST (2/9)
Length of Visible Light 11h 18m
Length of Day
10h 19m
Waning Crescent, 0% of the Moon is Illuminated
Feb 9
Waning Crescent
Feb 10
New
Feb 17
First Quarter
Feb 25
Full
Mar 4
Last Quarter

Hourly Weather History & Observations

Time (CST) Temp. Windchill Dew Point Humidity Pressure Visibility Wind Dir Wind Speed Gust Speed Precip Events Conditions
12:15 AM 26.6 °F 15.7 °F 23.0 °F 86% 30.22 in 6.0 mi South 12.7 mph 18.4 mph N/A   Overcast
12:35 AM 26.6 °F 14.7 °F 23.0 °F 86% 30.22 in 5.0 mi South 15.0 mph - N/A   Overcast
12:55 AM 26.6 °F 15.7 °F 23.0 °F 86% 30.23 in 5.0 mi South 12.7 mph - N/A   Overcast
1:15 AM 24.8 °F 11.5 °F 23.0 °F 93% 30.22 in 9.0 mi SSE 17.3 mph - N/A   Overcast
1:35 AM 24.8 °F 11.1 °F 23.0 °F 93% 30.22 in 9.0 mi SSE 18.4 mph - N/A   Overcast
1:55 AM 26.6 °F 14.7 °F 23.0 °F 86% 30.21 in 10.0 mi SSE 15.0 mph - N/A   Overcast
2:15 AM 26.6 °F 15.2 °F 23.0 °F 86% 30.22 in 10.0 mi South 13.8 mph - N/A   Overcast
2:35 AM 24.8 °F 11.1 °F 23.0 °F 93% 30.21 in 8.0 mi SSE 18.4 mph - N/A   Overcast
2:55 AM 24.8 °F 10.7 °F 23.0 °F 93% 30.20 in 8.0 mi SSE 19.6 mph - N/A   Overcast
3:15 AM 24.8 °F 11.9 °F 23.0 °F 93% 30.19 in 8.0 mi SSE 16.1 mph - N/A   Overcast
3:35 AM 24.8 °F 10.7 °F 23.0 °F 93% 30.18 in 8.0 mi South 19.6 mph - N/A   Overcast
3:55 AM 24.8 °F 11.9 °F 23.0 °F 93% 30.17 in 10.0 mi SSE 16.1 mph 24.2 mph N/A   Overcast
4:15 AM 24.8 °F 11.5 °F 23.0 °F 93% 30.17 in 10.0 mi SSE 17.3 mph - N/A   Overcast
4:35 AM 24.8 °F 11.1 °F 23.0 °F 93% 30.15 in 8.0 mi SSE 18.4 mph - N/A   Overcast
4:55 AM 24.8 °F 10.3 °F 23.0 °F 93% 30.15 in 9.0 mi SSE 20.7 mph 27.6 mph N/A   Overcast
5:15 AM 24.8 °F 10.7 °F 23.0 °F 93% 30.15 in 10.0 mi SSE 19.6 mph 25.3 mph N/A   Overcast
5:35 AM 24.8 °F 10.0 °F 23.0 °F 93% 30.14 in 9.0 mi South 21.9 mph - N/A   Overcast
5:55 AM 26.6 °F 14.3 °F 23.0 °F 86% 30.14 in 9.0 mi South 16.1 mph - N/A   Overcast
6:15 AM 26.6 °F 12.4 °F 23.0 °F 86% 30.14 in 10.0 mi South 21.9 mph - N/A   Overcast
6:35 AM 26.6 °F 12.7 °F 23.0 °F 86% 30.13 in 10.0 mi SSE 20.7 mph 28.8 mph N/A   Overcast
6:55 AM 26.6 °F 12.4 °F 23.0 °F 86% 30.12 in 10.0 mi SSE 21.9 mph 28.8 mph N/A   Overcast
7:15 AM 26.6 °F 12.7 °F 23.0 °F 86% 30.13 in 10.0 mi SSE 20.7 mph - N/A   Overcast
7:35 AM 26.6 °F 12.7 °F 23.0 °F 86% 30.13 in 9.0 mi South 20.7 mph - N/A   Overcast
7:55 AM 26.6 °F 13.4 °F 23.0 °F 86% 30.12 in 9.0 mi SSE 18.4 mph 24.2 mph N/A   Overcast
8:15 AM 26.6 °F 13.4 °F 24.8 °F 93% 30.12 in 8.0 mi SSE 18.4 mph 24.2 mph N/A   Overcast
8:35 AM 26.6 °F 12.0 °F 24.8 °F 93% 30.10 in 6.0 mi SSE 23.0 mph 28.8 mph N/A   Overcast
8:55 AM 28.4 °F 13.8 °F 24.8 °F 86% 30.10 in 5.0 mi SSE 25.3 mph - N/A   Overcast
9:15 AM 28.4 °F 15.4 °F 24.8 °F 86% 30.09 in 5.0 mi South 19.6 mph 28.8 mph N/A   Overcast
9:35 AM 28.4 °F 13.8 °F 24.8 °F 86% 30.10 in 6.0 mi South 25.3 mph - N/A   Overcast
9:55 AM 28.4 °F 15.1 °F 26.6 °F 93% 30.10 in 6.0 mi South 20.7 mph 27.6 mph N/A   Overcast
10:15 AM 28.4 °F 14.7 °F 26.6 °F 93% 30.09 in 6.0 mi South 21.9 mph - N/A   Overcast
10:35 AM 30.2 °F 16.8 °F 26.6 °F 86% 30.09 in 7.0 mi South 23.0 mph 29.9 mph N/A   Overcast
10:55 AM 30.2 °F 16.5 °F 26.6 °F 86% 30.09 in 6.0 mi South 24.2 mph - N/A   Overcast
11:15 AM 30.2 °F 17.4 °F 26.6 °F 86% 30.08 in 6.0 mi South 20.7 mph 28.8 mph N/A   Overcast
11:35 AM 30.2 °F 17.4 °F 28.4 °F 93% 30.07 in 6.0 mi South 20.7 mph 28.8 mph N/A   Overcast
11:55 AM 32.0 °F 19.8 °F 28.4 °F 87% 30.06 in 6.0 mi South 20.7 mph - N/A   Overcast
12:15 PM 32.0 °F 19.5 °F 28.4 °F 87% 30.05 in 6.0 mi South 21.9 mph - N/A   Overcast
12:35 PM 32.0 °F 20.5 °F 28.4 °F 87% 30.04 in 6.0 mi South 18.4 mph 26.5 mph N/A   Overcast
12:55 PM 32.0 °F 19.5 °F 28.4 °F 87% 30.03 in 6.0 mi South 21.9 mph 27.6 mph N/A   Overcast
1:15 PM 32.0 °F 19.8 °F 28.4 °F 87% 30.02 in 7.0 mi South 20.7 mph 26.5 mph N/A   Overcast
1:35 PM 32.0 °F 21.2 °F 28.4 °F 87% 30.01 in 6.0 mi South 16.1 mph 24.2 mph N/A   Overcast
1:55 PM 32.0 °F 19.8 °F 28.4 °F 87% 29.99 in 7.0 mi South 20.7 mph - N/A   Overcast
2:15 PM 33.8 °F 22.5 °F 28.4 °F 81% 29.98 in 7.0 mi South 19.6 mph 28.8 mph N/A   Overcast
2:55 PM 33.8 °F 21.9 °F 28.4 °F 81% 29.96 in 7.0 mi SSE 21.9 mph - N/A   Overcast
3:15 PM 33.8 °F 21.6 °F 28.4 °F 81% 29.95 in 6.0 mi SSE 23.0 mph 28.8 mph N/A   Overcast
3:35 PM 32.0 °F 19.2 °F 28.4 °F 87% 29.94 in 6.0 mi SSE 23.0 mph 28.8 mph N/A   Overcast
3:55 PM 32.0 °F 19.5 °F 28.4 °F 87% 29.93 in 6.0 mi SSE 21.9 mph - N/A   Overcast
4:15 PM 32.0 °F 19.5 °F 28.4 °F 87% 29.92 in 5.0 mi SSE 21.9 mph - N/A   Overcast
4:35 PM 32.0 °F 18.9 °F 28.4 °F 87% 29.91 in 5.0 mi SSE 24.2 mph 31.1 mph N/A   Overcast
4:55 PM 32.0 °F 20.1 °F 28.4 °F 87% 29.91 in 4.0 mi SSE 19.6 mph 25.3 mph N/A   Overcast
5:15 PM 32.0 °F 19.2 °F 28.4 °F 87% 29.91 in 4.0 mi SSE 23.0 mph - N/A   Overcast
5:35 PM 30.2 °F 17.8 °F 28.4 °F 93% 29.91 in 4.0 mi SE 19.6 mph 27.6 mph N/A   Overcast
5:55 PM 30.2 °F 17.8 °F 28.4 °F 93% 29.91 in 4.0 mi SSE 19.6 mph - N/A   Overcast
6:15 PM 30.2 °F 16.2 °F 28.4 °F 93% 29.91 in 5.0 mi SE 25.3 mph - N/A   Overcast
6:35 PM 30.2 °F 17.1 °F 28.4 °F 93% 29.91 in 6.0 mi SE 21.9 mph 28.8 mph N/A   Overcast
6:55 PM 30.2 °F 15.9 °F 28.4 °F 93% 29.91 in 6.0 mi SSE 26.5 mph - N/A   Overcast
7:35 PM 30.2 °F 16.8 °F 26.6 °F 86% 29.90 in 7.0 mi SE 23.0 mph 32.2 mph N/A   Overcast
7:55 PM 30.2 °F 16.8 °F 26.6 °F 86% 29.90 in 7.0 mi SE 23.0 mph 31.1 mph N/A   Overcast
8:15 PM 30.2 °F 18.1 °F 26.6 °F 86% 29.90 in 7.0 mi SE 18.4 mph 26.5 mph N/A   Overcast
8:35 PM 30.2 °F 17.8 °F 26.6 °F 86% 29.90 in 7.0 mi SE 19.6 mph 27.6 mph N/A   Mostly Cloudy
8:55 PM 30.2 °F 17.1 °F 26.6 °F 86% 29.88 in 7.0 mi SE 21.9 mph 28.8 mph N/A   Partly Cloudy
9:35 PM 30.2 °F 17.8 °F 26.6 °F 86% 29.88 in 6.0 mi SE 19.6 mph 26.5 mph N/A   Scattered Clouds
9:55 PM 30.2 °F 18.1 °F 26.6 °F 86% 29.86 in 6.0 mi SE 18.4 mph 25.3 mph N/A   Scattered Clouds
10:15 PM 30.2 °F 17.8 °F 28.4 °F 93% 29.86 in 6.0 mi SE 19.6 mph 25.3 mph N/A   Mostly Cloudy
10:35 PM 30.2 °F 18.5 °F 28.4 °F 93% 29.86 in 6.0 mi SE 17.3 mph 26.5 mph N/A   Mostly Cloudy
10:55 PM 30.2 °F 18.1 °F 28.4 °F 93% 29.85 in 6.0 mi SE 18.4 mph 25.3 mph N/A   Mostly Cloudy
11:15 PM 30.2 °F 17.1 °F 28.4 °F 93% 29.85 in 7.0 mi SE 21.9 mph 32.2 mph N/A   Overcast
11:35 PM 30.2 °F 17.4 °F 28.4 °F 93% 29.84 in 7.0 mi SE 20.7 mph 28.8 mph N/A   Mostly Cloudy
11:55 PM 30.2 °F 17.4 °F 28.4 °F 93% 29.84 in 6.0 mi SE 20.7 mph 26.5 mph N/A Rain Light Freezing Rain